Weather History for Big Bear City, CA

Change the Weather History Date:

Friday, June 28, 2013

  Actual Average (KBUO) Record (KBUO)
Temperature  
Mean Temperature 67 °F -  
Max Temperature 86 °F 88 °F 96 °F (2000)
Min Temperature 48 °F 57 °F 53 °F (1997)
Cooling Degree Days 2    
Growing Degree Days 17 (Base 50)    
Moisture  
Dew Point 34 °F    
Average Humidity 32    
Maximum Humidity 55    
Minimum Humidity 15    
Precipitation  
Precipitation 0.00 in - - ()
Sea Level Pressure  
Sea Level Pressure 30.37 in    
Wind  
Wind Speed 3 mph (West)    
Max Wind Speed 13 mph    
Max Gust Speed 18 mph    
Visibility 10 miles    
Events      
Averages and records for this station are not official NWS values.
T = Trace of Precipitation, MM = Missing Value Source: NWS Daily Summary

Daily Weather History Graph

Daily Weather History Graph

Search for Another Location

Airport:

Trip Planner

Search our weather history database for the weather conditions in past years. The results will help you decide how hot, cold, wet, or windy it might be!

Date:

Astronomy

Jun. 28, 2013 Rise Set
Actual Time 5:38 AM PDT 8:03 PM PDT
Civil Twilight 5:08 AM PDT 8:32 PM PDT
Nautical Twilight 4:32 AM PDT 9:08 PM PDT
Astronomical Twilight 3:53 AM PDT 9:48 PM PDT
Moon 11:53 PM PDT (6/28) 11:33 AM PDT (6/28)
Length of Visible Light 15h 23m
Length of Day
14h 25m
Waning Gibbous, 65% of the Moon is Illuminated
Jun 28
Waning Gibbous
Jun 29
Last Quarter
Jul 8
New
Jul 15
First Quarter
Jul 22
Full

Hourly Weather History & Observations

Time (PDT) Temp. Dew Point Humidity Pressure Visibility Wind Dir Wind Speed Gust Speed Precip Events Conditions
12:15 AM 53.6 °F 35.6 °F 51% 30.41 in 10.0 mi Calm Calm - N/A   Clear
12:35 AM 53.6 °F 32.0 °F 44% 30.41 in 10.0 mi Calm Calm - N/A   Clear
12:55 AM 51.8 °F 32.0 °F 47% 30.41 in 10.0 mi Calm Calm - N/A   Clear
1:15 AM 51.8 °F 32.0 °F 47% 30.41 in 10.0 mi Calm Calm - N/A   Clear
1:35 AM 51.8 °F 30.2 °F 44% 30.40 in 10.0 mi Calm Calm - N/A   Clear
1:55 AM 50.0 °F 30.2 °F 47% 30.39 in 10.0 mi Calm Calm - N/A   Clear
2:15 AM 50.0 °F 32.0 °F 50% 30.39 in 10.0 mi Calm Calm - N/A   Clear
2:35 AM 50.0 °F 32.0 °F 50% 30.39 in 10.0 mi Calm Calm - N/A   Clear
2:55 AM 50.0 °F 32.0 °F 50% 30.39 in 10.0 mi Calm Calm - N/A   Clear
3:15 AM 50.0 °F 32.0 °F 50% 30.38 in 10.0 mi Calm Calm - N/A   Clear
3:35 AM 48.2 °F 32.0 °F 54% 30.38 in 10.0 mi Calm Calm - N/A   Clear
3:55 AM 48.2 °F 32.0 °F 54% 30.38 in 10.0 mi Calm Calm - N/A   Clear
4:15 AM 48.2 °F 32.0 °F 54% 30.38 in 10.0 mi Calm Calm - N/A   Clear
4:35 AM 48.2 °F 32.0 °F 54% 30.38 in 10.0 mi Calm Calm - N/A   Clear
4:55 AM 48.2 °F 32.0 °F 54% 30.38 in 10.0 mi Calm Calm - N/A   Clear
5:55 AM 48.2 °F 32.0 °F 54% 30.39 in 10.0 mi Calm Calm - N/A   Clear
6:15 AM 50.0 °F 32.0 °F 50% 30.39 in 10.0 mi Calm Calm - N/A   Clear
6:35 AM 50.0 °F 33.8 °F 54% 30.39 in 10.0 mi Calm Calm - N/A   Clear
6:55 AM 53.6 °F 37.4 °F 54% 30.39 in 10.0 mi Calm Calm - N/A   Clear
7:15 AM 57.2 °F 41.0 °F 55% 30.39 in 10.0 mi West 3.5 mph - N/A   Clear
7:35 AM 60.8 °F 39.2 °F 45% 30.39 in 10.0 mi West 3.5 mph - N/A   Clear
7:55 AM 64.4 °F 35.6 °F 34% 30.39 in 10.0 mi West 4.6 mph - N/A   Clear
8:15 AM 68.0 °F 35.6 °F 30% 30.39 in 10.0 mi West 3.5 mph - N/A   Clear
8:35 AM 71.6 °F 37.4 °F 29% 30.39 in 10.0 mi West 4.6 mph - N/A   Clear
8:55 AM 73.4 °F 39.2 °F 29% 30.39 in 10.0 mi West 3.5 mph - N/A   Clear
9:15 AM 77.0 °F 37.4 °F 24% 30.39 in 10.0 mi Calm Calm - N/A   Clear
9:35 AM 78.8 °F 35.6 °F 21% 30.39 in 10.0 mi Calm Calm - N/A   Clear
9:55 AM 78.8 °F 35.6 °F 21% 30.39 in 10.0 mi ENE 4.6 mph - N/A   Clear
10:15 AM 80.6 °F 35.6 °F 20% 30.39 in 7.0 mi ENE 5.8 mph - N/A   Clear
10:35 AM 80.6 °F 35.6 °F 20% 30.39 in 10.0 mi ENE 5.8 mph - N/A   Clear
10:55 AM 80.6 °F 37.4 °F 21% 30.39 in 10.0 mi NE 5.8 mph - N/A   Clear
11:15 AM 80.6 °F 37.4 °F 21% 30.39 in 10.0 mi East 12.7 mph 18.4 mph N/A   Clear
11:35 AM 82.4 °F 37.4 °F 20% 30.39 in 10.0 mi ENE 10.4 mph - N/A   Clear
11:55 AM 82.4 °F 37.4 °F 20% 30.39 in 10.0 mi NW 4.6 mph - N/A   Clear
12:15 PM 80.6 °F 35.6 °F 20% 30.39 in 10.0 mi West 10.4 mph - N/A   Scattered Clouds
12:35 PM 80.6 °F 35.6 °F 20% 30.38 in 10.0 mi West 9.2 mph - N/A   Scattered Clouds
12:55 PM 82.4 °F 35.6 °F 19% 30.37 in 10.0 mi West 9.2 mph - N/A   Clear
1:15 PM 82.4 °F 33.8 °F 17% 30.37 in 10.0 mi WSW 8.1 mph - N/A   Clear
1:35 PM 82.4 °F 33.8 °F 17% 30.36 in 10.0 mi West 9.2 mph 16.1 mph N/A   Clear
1:55 PM 86.0 °F 33.8 °F 15% 30.36 in 10.0 mi West 9.2 mph - N/A   Clear
2:15 PM 86.0 °F 33.8 °F 15% 30.35 in 10.0 mi South 6.9 mph - N/A   Clear
2:35 PM 84.2 °F 33.8 °F 16% 30.35 in 10.0 mi West 10.4 mph - N/A   Clear
2:55 PM 82.4 °F 33.8 °F 17% 30.35 in 10.0 mi West 10.4 mph - N/A   Scattered Clouds
3:15 PM 84.2 °F 35.6 °F 18% 30.35 in 10.0 mi WSW 8.1 mph - N/A   Scattered Clouds
3:35 PM 84.2 °F 35.6 °F 18% 30.34 in 10.0 mi West 10.4 mph - N/A   Scattered Clouds
3:55 PM 82.4 °F 35.6 °F 19% 30.34 in 10.0 mi West 12.7 mph 17.3 mph N/A   Clear
4:15 PM 82.4 °F 35.6 °F 19% 30.33 in 10.0 mi West 12.7 mph - N/A   Clear
4:35 PM 82.4 °F 35.6 °F 19% 30.33 in 10.0 mi West 9.2 mph - N/A   Scattered Clouds
4:55 PM 80.6 °F 33.8 °F 18% 30.33 in 10.0 mi West 8.1 mph - N/A   Clear
5:15 PM 80.6 °F 37.4 °F 21% 30.33 in 10.0 mi West 11.5 mph - N/A   Clear
5:35 PM 78.8 °F 35.6 °F 21% 30.33 in 10.0 mi West 11.5 mph 16.1 mph N/A   Clear
5:55 PM 78.8 °F 37.4 °F 23% 30.33 in 10.0 mi WSW 6.9 mph - N/A   Clear
6:15 PM 78.8 °F 35.6 °F 21% 30.33 in 10.0 mi WSW 5.8 mph - N/A   Clear
6:35 PM 77.0 °F 33.8 °F 21% 30.33 in 10.0 mi WSW 5.8 mph - N/A   Clear
6:55 PM 75.2 °F 35.6 °F 24% 30.33 in 10.0 mi West 8.1 mph - N/A   Clear
7:15 PM 73.4 °F 33.8 °F 23% 30.33 in 10.0 mi West 9.2 mph - N/A   Clear
7:35 PM 73.4 °F 33.8 °F 23% 30.33 in 10.0 mi West 8.1 mph - N/A   Clear
7:55 PM 71.6 °F 35.6 °F 27% 30.33 in 10.0 mi WSW 3.5 mph - N/A   Clear
8:15 PM 71.6 °F 35.6 °F 27% 30.33 in 10.0 mi Calm Calm - N/A   Clear
8:35 PM 69.8 °F 33.8 °F 27% 30.33 in 10.0 mi Calm Calm - N/A   Clear
8:55 PM 66.2 °F 33.8 °F 30% 30.34 in 10.0 mi SSW 3.5 mph - N/A   Clear
9:15 PM 64.4 °F 33.8 °F 32% 30.34 in 10.0 mi Calm Calm - N/A   Clear
9:35 PM 64.4 °F 33.8 °F 32% 30.35 in 10.0 mi Calm Calm - N/A   Clear
9:55 PM 62.6 °F 33.8 °F 34% 30.35 in 10.0 mi Calm Calm - N/A   Clear
10:15 PM 60.8 °F 32.0 °F 34% 30.35 in 10.0 mi Calm Calm - N/A   Clear
10:35 PM 59.0 °F 32.0 °F 36% 30.36 in 10.0 mi Calm Calm - N/A   Clear
10:55 PM 59.0 °F 32.0 °F 36% 30.36 in 10.0 mi Calm Calm - N/A   Clear
11:15 PM 57.2 °F 30.2 °F 36% 30.36 in 10.0 mi Calm Calm - N/A   Clear
11:35 PM 55.4 °F 30.2 °F 38% 30.36 in 10.0 mi Calm Calm - N/A   Clear
11:55 PM 55.4 °F 26.6 °F 33% 30.36 in 10.0 mi Calm Calm - N/A   Clear